This is the latest recevied weather packets stored in our database for station/object KQ4WWD. If no packets are shown the sender has not sent any weather packets the latest 10 day(s).
| Time | Temp. | Humidity | Pressure | Rain* | Wind** | Luminosity | Snow |
|---|---|---|---|---|---|---|---|
| 1788565221 | 26.67° C | 91% | 1014.7 hPa | 0 mm | - | 4 W/m² | - |
| 1788564916 | 26.67° C | 91% | 1014.4 hPa | 0 mm | - | 3 W/m² | - |
| 1788564612 | 26.67° C | 91% | 1014.2 hPa | 0 mm | - | 3 W/m² | - |
| 1788564308 | 26.67° C | 91% | 1014.5 hPa | 0 mm | - | 2 W/m² | - |
| 1788564004 | 26.67° C | 91% | 1014.3 hPa | 0 mm | - | 2 W/m² | - |
| 1788563700 | 26.67° C | 91% | 1014.2 hPa | 0 mm | - | 3 W/m² | - |
| 1788563394 | 26.67° C | 91% | 1014.4 hPa | 0 mm | - | 4 W/m² | - |
| 1788563093 | 26.67° C | 91% | 1014.3 hPa | 0 mm | - | 5 W/m² | - |
| 1788562789 | 26.67° C | 91% | 1014.3 hPa | 0 mm | - | 6 W/m² | - |
| 1788562487 | 26.67° C | 91% | 1014.3 hPa | 0 mm | - | 6 W/m² | - |
| 1788562186 | 26.67° C | 91% | 1014.3 hPa | 0 mm | - | 9 W/m² | - |
| 1788561882 | 26.67° C | 91% | 1014.2 hPa | 0 mm | - | 12 W/m² | - |
| 1788561582 | 26.67° C | 91% | 1014.6 hPa | 0 mm | - | 13 W/m² | - |
| 1788561281 | 26.67° C | 91% | 1014.6 hPa | 0 mm | - | 14 W/m² | - |
| 1788560977 | 26.67° C | 91% | 1014.4 hPa | 0 mm | - | 14 W/m² | - |
| 1788560673 | 26.67° C | 91% | 1014.1 hPa | 0 mm | - | 12 W/m² | - |
| 1788560372 | 26.67° C | 91% | 1014 hPa | 0 mm | - | 16 W/m² | - |
| 1788560067 | 26.67° C | 91% | 1013.7 hPa | 0 mm | - | 18 W/m² | - |
| 1788559763 | 26.67° C | 91% | 1013.5 hPa | 0 mm | - | 19 W/m² | - |
| 1788559462 | 26.67° C | 92% | 1013.7 hPa | 0 mm | - | 21 W/m² | - |
| 1788559157 | 26.67° C | 92% | 1013.5 hPa | 0 mm | - | 21 W/m² | - |
| 1788558852 | 26.11° C | 92% | 1013.2 hPa | 0 mm | - | 23 W/m² | - |
| 1788558548 | 26.11° C | 92% | 1013.3 hPa | 0 mm | - | 25 W/m² | - |
| 1788558244 | 26.11° C | 92% | 1013.3 hPa | 0 mm | - | 26 W/m² | - |
| 1788557942 | 26.11° C | 92% | 1013.5 hPa | 0 mm | - | 29 W/m² | - |
* Rain latest hour (hover to see other rain measurements)
** Current wind speed in m/s (hover to see current wind gust speed)